This is the latest recevied weather packets stored in our database for station/object KO5MO-10. If no packets are shown the sender has not sent any weather packets the latest 10 day(s).
| Time | Temp. | Humidity | Pressure | Rain* | Wind** | Luminosity | Snow |
|---|---|---|---|---|---|---|---|
| 1777785058 | 22.22° C | 25% | 1006.5 hPa | - | - | - | - |
| 1777784158 | 22.78° C | 25% | 1006.4 hPa | - | - | - | - |
| 1777783258 | 22.78° C | 24% | 1006.3 hPa | - | - | - | - |
| 1777782357 | 23.33° C | 24% | 1006.1 hPa | - | - | - | - |
| 1777781457 | 23.89° C | 22% | 1005.9 hPa | - | - | - | - |
| 1777780557 | 24.44° C | 22% | 1005.7 hPa | - | - | - | - |
| 1777779657 | 25° C | 22% | 1005.6 hPa | - | - | - | - |
| 1777778757 | 25.56° C | 20% | 1005.5 hPa | - | - | - | - |
| 1777777857 | 26.67° C | 19% | 1005.3 hPa | - | - | - | - |
| 1777776956 | 27.78° C | 18% | 1005.4 hPa | - | - | - | - |
| 1777776056 | 28.89° C | 17% | 1005.2 hPa | - | - | - | - |
| 1777775156 | 30° C | 16% | 1005.2 hPa | - | - | - | - |
| 1777774256 | 30.56° C | 15% | 1005.1 hPa | - | - | - | - |
| 1777773356 | 31.67° C | 14% | 1005 hPa | - | - | - | - |
| 1777772455 | 32.78° C | 13% | 1005.2 hPa | - | - | - | - |
| 1777771555 | 33.89° C | 13% | 1005.3 hPa | - | - | - | - |
| 1777770655 | 35° C | 12% | 1005.4 hPa | - | - | - | - |
| 1777769755 | 35.56° C | 12% | 1005.5 hPa | - | - | - | - |
| 1777768855 | 36.67° C | 11% | 1005.5 hPa | - | - | - | - |
| 1777767955 | 36.67° C | 12% | 1005.6 hPa | - | - | - | - |
| 1777767054 | 36.67° C | 12% | 1005.6 hPa | - | - | - | - |
| 1777766154 | 36.11° C | 12% | 1005.7 hPa | - | - | - | - |
| 1777765254 | 36.11° C | 12% | 1005.7 hPa | - | - | - | - |
| 1777764354 | 37.78° C | 11% | 1005.7 hPa | - | - | - | - |
| 1777763454 | 38.33° C | 11% | 1005.9 hPa | - | - | - | - |
* Rain since midnight (hover to see other rain measurements)
** Current wind speed in m/s (hover to see current wind gust speed)